Flag for U.S.A. Weather past 2 weeks in Mason, Ohio, U.S.A.

Now
35 °F

Fog.


Feels Like: 27 °F
Forecast: 19 / 35 °F
Wind: 12 mph from West

Location: Butler County Regional Airport

Current Time: Jan 29, 2015 at 7:27:56 PM

Latest Report: Jan 29, 2015 at 6:53 PM


Visibility: 5 mi

Pressure: 30.11 "Hg

Humidity: 88%

Dew point: 32 °F

Location of MasonLocation

Historic Weather in Mason — Graph

°F

Mason temperature yesterday

Maximum temperature yesterday: 36 °F (at 3:53 PM)
Minimum temperature yesterday: 9 °F (at 6:53 AM)
Average temperature yesterday: 24 °F

Past Weeks' High & Low Weather Summary

 TemperatureHumidityPressure
High54 °F (Jan 17, 2:53 PM)97% (Jan 18, 5:53 AM)30.47 "Hg (Jan 18, 5:53 AM)
Low9 °F (Jan 28, 6:53 AM)30% (Jan 15, 2:53 PM)29.69 "Hg (Jan 25, 3:53 PM)
Average33 °F74%30.06 "Hg
* Reported Jan 14 5:53 PM — Jan 29 5:53 PM, Mason, Weather by CustomWeather, © 2014

Note: Actual official high and low records may vary slightly from our data, if they occured in-between our weather recording intervals... More about our weather records

Advertising

Mason weather history for previous 24 hours

 ConditionsComfort  
Time TempWeatherWind HumidityBarometerVisibility
5:53 PM
Jan 29
35 °FFog.8 mph92%30.06 "Hg5 mi
4:53 PM37 °FOvercast.10 mph82%30.02 "Hg6 mi
3:53 PM39 °FOvercast.14 mph76%29.98 "Hg10 mi
2:53 PM40 °FOvercast.17 mph77%29.92 "Hg9 mi
1:53 PM46 °FMostly cloudy.16 mph71%29.87 "Hg10 mi
12:53 PM49 °FOvercast.9 mph64%29.83 "Hg10 mi
11:53 AM49 °FOvercast.9 mph61%29.84 "Hg10 mi
10:53 AM48 °FOvercast.10 mph63%29.85 "Hg10 mi
9:53 AM41 °FSunny.5 mph80%29.86 "Hg10 mi
8:53 AM36 °FMostly cloudy.5 mph85%29.89 "Hg10 mi
7:53 AM36 °FOvercast.3 mph79%29.90 "Hg10 mi
6:53 AM35 °FOvercast.5 mph82%29.92 "Hg10 mi
5:53 AM34 °FRain. Overcast.5 mph82%29.96 "Hg5 mi
4:53 AM35 °FMostly cloudy.7 mph56%29.98 "Hg10 mi
3:53 AM34 °FClear.3 mph56%30.03 "Hg10 mi
2:53 AM34 °FClear.6 mph56%30.07 "Hg10 mi
1:53 AM33 °FClear.5 mph58%30.10 "Hg10 mi
12:53 AM33 °FClear.6 mph58%30.14 "Hg10 mi
11:53 PM
Jan 28
31 °FClear.No wind64%30.16 "Hg10 mi
10:53 PM31 °FClear.3 mph64%30.18 "Hg10 mi
9:53 PM31 °FClear.No wind67%30.23 "Hg10 mi
8:53 PM32 °FClear.5 mph59%30.24 "Hg10 mi
7:53 PM32 °FClear.3 mph61%30.27 "Hg10 mi
Weather by CustomWeather, © 2014

See weather overviewHow to use our weather pages